Starlink 32737

operational
NORAD ID: 62444 Int'l Des: 2024-251 Owner: SPXS Country: US Constellation: starlink
LEOCIRCULAR

Über Starlink 32737

Beschreibung wird geladen...

Live-Position

3D-Globus wird geladen...

Nächste Überflüge

Höhenverlauf

Altitude vs Time

uPlot chart will show altitude changes over time

Zweizeiliger Elementsatz

1 62444U 24251N 25352.26081818 .00011619 00000-0 40413-3 0 9998
2 62444 53.1618 351.2323 0001529 96.0004 264.1171 15.30173308 55510
Epoch: 18. Dez. 2025 • Age: 23 hours

Aktueller Status

Höhe 481.9 km
Geschwindigkeit 7.62 km/s
Subsatellitenpunkt -22.30°S, 19.88°E
Startdatum 29. Dez. 2024
Alter 0.9 years
Typ internet

Technische Details

Klassifizierung Payload
Masse 730.00 kg
Trockenmasse 700.00 kg
Gesamtmasse 730.00 kg
Länge 0.30 m
Durchmesser 4.10 m
Spannweite 29.00 m
Form Box + pan
Hersteller SPXS
Bus-Typ Starlink V2M
Phasenstatus In Orbit
Besitzer/Staat SPXS/US

Große Konstellationen

Loading constellations...